SCP
0 0 0 0 0 0 0 0 0 0 0 0 0 0 0 0 0 0 0 0 1 1 0 0 0 0 0 0 0 0 0 0 0 0 0 0 0 0 0 0 0 0 0 0 0 0 0 0 0
0 0 0 0 0 0 0 0 0 0 0 0 0 0 0 0 0 0 0 0 1 1 0 0 0 0 0 0 0 0 0 0 0 0 0 0 0 0 0 0 0 0 0 0 0 0 0 0 0
0 0 0 0 0 0 0 0 0 0 0 0 0 0 0 0 0 0 0 1 1 1 0 0 0 0 0 0 0 0 0 0 0 0 0 0 0 0 0 0 0 0 0 0 0 0 0 0 0
0 0 0 0 0 0 0 0 0 0 0 0 0 0 0 0 0 0 0 1 1 0 0 0 0 0 0 0 0 0 0 0 0 0 0 0 0 0 0 0 0 0 0 0 0 0 0 0 0
0 0 0 0 0 0 0 0 0 0 0 0 0 0 0 0 0 0 0 0 1 0 0 0 0 0 0 0 0 0 0 0 0 0 0 0 0 0 0 0 0 0 0 0 0 0 0 0 0
0 0 0 0 0 0 0 0 0 0 0 0 0 0 0 0 0 0 0 0 0 0 0 0 0 0 0 0 0 0 0 0 0 0 0 0 0 0 0 0 0 0 0 0 0 0 0 0 0
0 0 0 0 0 0 0 0 0 0 0 0 0 0 0 0 0 0 0 0 0 1 0 0 0 0 0 0 0 0 0 0 0 0 0 0 0 0 0 0 0 0 0 0 0 0 0 0 0
0 0 0 0 0 0 0 0 0 0 0 0 0 0 0 0 0 0 0 0 0 0 0 0 0 0 0 0 0 0 0 0 0 0 0 0 0 0 0 0 0 0 0 0 0 0 0 0 0
0 0 0 0 0 0 0 0 0 0 0 0 0 0 0 0 0 0 0 0 0 0 0 0 0 0 0 0 0 0 0 0 0 0 0 0 0 0 0 0 0 0 0 0 0 0 0 0 0
0 0 0 0 0 0 0 0 0 0 0 0 0 0 0 0 0 0 0 0 0 0 0 0 0 0 0 0 0 0 0 0 0 0 0 0 0 0 0 0 1 0 0 0 0 0 0 0 0
0 0 0 0 0 0 0 0 0 0 0 0 0 0 1 0 0 0 0 0 0 0 0 0 0 0 0 0 0 0 0 0 0 0 0 0 0 0 0 1 1 1 0 0 0 0 0 0 0
0 0 0 0 0 0 0 0 0 0 0 0 0 0 1 0 0 0 0 0 0 0 0 1 1 1 1 1 0 0 0 0 0 0 0 0 0 0 1 1 1 1 0 0 0 0 0 0 0
0 0 0 0 0 0 0 0 0 0 0 0 0 0 0 0 0 0 0 0 1 1 1 1 1 1 1 1 1 1 1 1 1 1 1 1 1 1 1 1 1 1 1 1 0 0 0 0 0
0 0 0 0 0 0 0 0 0 0 0 0 0 0 0 0 0 0 0 1 1 1 1 1 2 2 2 2 1 1 1 1 1 1 1 1 1 1 1 2 2 1 1 1 1 1 1 1 0
0 0 0 0 0 0 0 0 0 0 0 0 0 0 0 0 0 0 1 1 1 2 2 2 2 3 3 2 2 2 1 1 2 2 2 2 2 2 2 2 2 2 2 1 1 1 1 1 1
0 0 0 0 0 0 0 0 -0 0 0 0 0 0 0 0 0 1 1 2 2 3 3 3 3 3 3 3 3 2 2 2 2 2 2 2 2 2 2 2 2 2 2 2 1 1 1 1 1
0 0 0 0 0 0 0 0 0 0 0 0 0 0 0 0 1 1 1 2 3 4 4 4 4 4 4 4 4 3 3 3 3 3 3 2 2 2 3 2 2 2 2 2 1 1 1 1 1
0 0 0 0 0 0 0 0 0 0 0 0 0 0 0 1 1 1 2 3 4 5 5 5 6 6 5 5 4 4 4 4 3 3 3 3 2 2 2 2 2 2 1 1 1 1 1 0 0
0 0 0 0 0 0 0 0 0 0 0 0 0 0 1 1 1 2 3 4 5 6 6 7 7 7 7 6 5 5 4 4 4 3 3 2 2 2 2 2 2 1 1 1 1 0 0 0 0
0 0 0 0 0 0 0 0 0 0 0 0 0 1 1 1 2 3 3 4 5 6 7 7 8 8 7 6 5 5 4 4 3 3 2 2 2 1 1 1 1 1 1 0 0 0 0 0 0
0 0 0 0 0 0 0 0 0 0 0 1 1 1 2 2 3 3 4 5 6 7 7 7 8 8 7 6 5 5 4 3 3 2 1 1 1 1 1 1 0 0 0 0 0 0 0 0 0
0 0 0 0 0 0 0 0 0 0 1 1 2 2 2 3 4 4 5 6 7 8 8 8 8 7 6 6 5 4 3 3 2 1 1 1 0 0 0 0 0 0 0 0 0 0 0 0 0
0 0 0 0 0 0 0 0 0 0 1 2 2 3 3 4 4 4 5 6 7 8 8 8 7 6 5 5 4 3 3 2 1 1 1 0 0 0 0 0 0 0 0 0 0 0 0 0 0
0 0 0 0 0 0 0 0 0 1 1 2 3 4 4 3 3 4 4 5 6 6 6 6 5 4 4 3 3 2 2 1 1 0 0 0 0 0 0 0 0 0 0 0 0 0 0 0 0
0 0 0 0 0 0 0 0 1 2 3 3 4 4 3 3 3 3 3 3 4 4 4 3 3 2 2 2 1 1 1 1 0 0 0 0 0 0 0 0 0 0 0 0 0 0 0 0 0
0 0 0 0 0 0 0 0 1 3 3 4 3 3 2 2 2 2 2 2 2 2 2 2 1 1 1 1 1 0 0 0 0 0 0 0 0 0 0 0 0 0 0 0 0 0 0 0 0
0 0 0 0 0 0 0 1 2 3 3 3 2 2 1 1 1 1 1 1 1 1 1 1 0 0 0 0 0 0 0 0 0 0 0 0 0 0 0 0 0 0 0 0 0 0 0 0 0
0 0 0 0 0 0 0 1 2 2 2 2 2 1 1 0 0 0 0 0 0 0 0 0 0 0 0 0 0 0 0 0 0 0 0 0 0 0 0 0 0 0 0 0 0 0 0 0 0
0 0 0 0 0 0 0 0 1 2 2 1 1 0 0 0 0 0 0 0 0 0 0 0 0 0 0 0 0 0 0 0 0 0 0 0 0 0 0 0 0 0 0 0 0 0 0 0 0
0 0 0 0 0 0 0 1 1 2 2 1 1 0 0 0 0 0 0 0 0 0 0 0 0 0 0 0 0 0 0 0 0 0 0 0 0 0 0 0 0 0 0 0 0 0 0 0 0
Wind_Speed
13 15 13 10 9 10 9 4 1 5 9 8 8 8 8 11 10 9 7 11 21 21 18 17 16 14 12 12 12 13 13 13 12 11 11 10 10 10 10 11 10 10 10 10 10 9 8 8 7
12 15 12 9 11 11 5 3 3 6 7 5 5 5 8 13 12 11 10 14 22 19 16 16 17 14 13 12 12 12 13 13 13 12 12 11 10 10 10 10 10 10 9 9 9 8 7 7 6
11 14 9 9 14 13 7 7 4 4 4 3 4 4 6 9 10 10 13 16 19 17 15 17 17 15 14 13 12 12 13 13 13 12 12 11 11 10 10 10 10 9 9 8 8 7 6 5 4
8 9 9 11 18 16 8 7 8 3 1 2 3 4 11 9 8 14 16 17 19 18 17 17 17 16 14 14 13 13 13 13 12 12 11 11 10 10 10 9 9 9 8 8 7 6 5 4 3
9 9 13 16 21 19 12 9 9 6 3 1 1 4 11 11 15 19 16 17 17 18 18 17 16 16 15 14 13 12 12 12 12 11 11 10 10 9 9 9 8 8 7 7 6 5 4 3 1
10 11 14 17 20 19 16 13 11 9 6 3 1 3 10 13 15 17 17 16 17 18 18 16 17 16 15 14 12 12 11 11 11 11 10 10 9 9 9 8 8 7 7 6 5 4 3 2 1
12 13 17 20 20 19 16 13 10 8 8 4 1 3 10 15 15 17 16 16 17 19 19 15 15 14 14 13 12 11 11 11 11 10 10 10 9 9 9 8 8 7 6 6 5 4 3 3 3
12 13 20 20 20 19 16 13 10 9 8 4 2 3 10 15 16 17 16 15 17 18 18 16 15 14 13 12 13 12 12 11 11 11 11 10 10 9 9 9 8 8 7 6 5 5 4 5 6
16 15 17 19 18 17 15 14 12 8 7 5 4 4 16 18 17 17 15 14 15 16 17 16 16 14 13 13 13 12 12 11 11 10 10 9 8 8 8 9 11 9 7 7 6 6 7 7 8
14 14 19 19 18 16 14 12 10 9 10 9 8 12 20 19 17 17 17 16 16 16 17 16 17 15 14 12 11 9 9 9 8 8 9 7 6 6 8 11 12 11 9 8 9 9 9 8 6
17 18 17 17 17 14 14 11 8 10 10 9 8 15 20 20 18 17 17 16 16 15 14 17 17 13 13 10 10 7 6 8 8 9 9 6 5 4 6 6 7 7 8 7 7 8 6 7 5
18 17 16 16 14 11 12 13 11 11 11 9 4 8 15 16 17 17 17 16 16 16 15 16 17 13 11 11 9 7 7 7 7 7 9 6 3 3 5 4 6 5 4 5 4 4 6 4 2
18 17 16 14 14 12 12 14 13 13 11 9 4 7 13 13 14 15 16 16 17 16 14 14 16 12 7 7 7 7 6 8 7 7 7 6 4 2 2 2 3 3 3 4 3 3 1 0 1
15 15 17 16 15 13 14 15 15 15 13 11 7 9 13 16 17 16 15 15 16 16 14 12 15 13 8 6 5 5 6 5 6 6 7 6 4 3 2 2 1 0 0 1 1 0 1 1 1
15 15 15 16 16 15 14 17 19 17 15 14 12 12 13 15 15 15 16 15 16 15 13 11 13 13 10 10 7 6 6 6 5 5 6 6 4 4 4 2 2 1 1 2 2 2 2 1 1
13 15 17 17 18 16 16 17 16 18 17 14 12 12 13 13 14 11 12 13 14 16 14 13 14 15 11 8 7 5 6 7 5 5 5 6 5 5 4 3 2 2 1 2 1 1 1 1 1
14 15 17 18 19 16 17 17 16 15 16 13 10 9 10 11 11 11 13 12 13 14 14 13 12 15 13 10 7 6 5 5 5 5 5 6 6 5 4 3 2 2 2 1 1 1 0 1 1
14 17 17 17 14 16 16 15 15 12 13 12 10 8 8 9 10 11 12 13 11 11 13 12 11 13 12 9 7 5 5 5 4 4 5 6 5 5 3 2 3 2 2 1 1 2 1 1 1
19 15 14 13 11 13 13 14 14 11 10 9 9 8 6 4 4 5 10 11 12 11 12 12 11 12 10 8 8 7 6 5 4 4 4 4 5 4 3 3 3 2 1 2 2 1 1 1 2
18 17 15 11 6 7 9 12 13 13 10 7 5 2 2 5 6 6 7 9 10 11 11 11 11 12 10 7 6 5 6 5 5 5 6 6 6 5 4 4 3 2 2 3 2 1 1 2 1
16 15 15 13 7 8 9 13 15 13 10 6 4 3 3 6 7 7 7 5 9 8 9 11 11 11 9 9 7 6 5 5 4 5 5 6 6 6 5 5 4 4 3 3 3 2 2 1 1
14 14 15 15 12 10 12 12 15 15 12 8 5 4 6 9 10 10 11 8 6 6 6 7 9 9 8 9 9 10 7 6 5 6 6 7 7 7 7 7 7 6 5 5 4 4 3 2 1
14 13 14 15 14 14 14 14 13 15 14 10 7 9 12 13 14 13 12 11 10 9 8 8 9 8 8 7 8 8 7 7 7 8 9 8 8 8 8 7 7 7 6 6 6 5 5 3 3
13 14 14 14 13 17 17 16 13 8 11 12 13 14 14 15 15 14 14 14 13 13 12 12 12 11 9 9 8 8 10 10 10 9 9 7 6 7 8 9 8 7 6 6 5 5 6 4 4
13 11 9 11 12 15 16 17 7 7 13 17 18 17 16 16 15 15 15 14 14 14 14 13 14 13 12 12 11 10 11 11 10 9 8 8 6 6 7 8 7 6 6 5 5 5 4 4 4
14 15 12 11 11 12 15 15 6 16 19 19 18 17 17 16 15 14 13 13 13 14 13 13 14 14 13 13 12 11 11 9 8 9 8 8 7 7 7 7 7 6 5 6 4 4 3 3 3
15 15 17 16 17 14 10 5 12 16 18 17 17 17 16 15 14 13 13 13 13 13 13 13 14 14 14 13 13 13 12 11 10 9 9 8 7 7 8 7 6 6 6 5 4 3 3 3 2
16 13 9 12 13 14 11 6 8 16 15 15 15 16 15 14 13 12 11 12 11 12 12 13 14 14 13 12 11 11 12 11 10 10 10 9 8 7 7 7 6 5 5 4 3 2 2 2 3
13 15 12 11 12 13 10 1 3 13 15 15 15 15 14 13 12 11 10 10 11 12 12 13 13 14 13 13 12 12 11 11 11 10 10 8 7 6 6 6 5 4 4 4 3 4 3 4 4
11 13 12 10 11 12 9 2 8 14 16 16 16 15 14 13 12 11 11 11 11 12 11 12 12 12 12 12 12 11 11 10 10 10 8 7 6 6 5 5 4 4 4 4 4 5 5 5 5
Wind_Direction
286 277 273 277 263 250 270 319 81 48 60 56 47 38 47 53 57 95 133 122 111 120 127 127 125 125 126 130 136 141 141 141 141 138 133 127 119 113 109 107 105 106 106 105 102 99 93 89 84
286 287 284 266 266 271 291 307 14 61 57 52 77 61 65 69 77 104 120 114 116 123 133 130 128 127 127 129 133 140 143 144 145 143 140 134 127 121 117 113 111 109 108 107 104 100 96 92 88
273 273 276 271 261 265 272 309 331 69 87 44 54 55 67 80 91 110 121 125 121 126 129 128 133 130 130 131 134 140 143 145 147 146 144 139 132 126 122 118 115 111 109 108 106 102 100 97 90
258 255 248 259 264 266 254 261 286 307 79 70 40 62 79 75 95 118 130 132 126 132 130 135 135 133 133 134 136 141 144 145 146 146 143 139 133 128 125 122 119 116 114 112 109 108 107 105 100
239 256 256 257 262 268 265 258 274 284 281 287 360 79 94 93 105 120 137 136 138 137 132 139 137 135 136 137 139 141 142 143 144 144 141 136 133 130 128 126 124 121 119 117 117 118 119 121 125
240 239 247 253 258 261 260 255 252 264 274 274 230 124 104 117 119 135 142 144 142 135 132 138 140 140 140 141 141 138 137 139 140 139 137 134 132 132 130 129 127 125 125 125 128 132 137 151 208
240 244 248 253 260 263 264 263 261 263 271 267 270 122 123 132 135 143 146 149 143 136 134 145 147 145 144 143 141 137 135 135 135 135 135 136 137 138 138 136 133 132 135 140 146 155 167 194 231
239 249 253 255 260 266 270 268 261 257 264 281 239 170 133 133 145 146 149 151 144 139 141 152 153 153 154 151 148 143 139 138 138 140 143 144 146 152 154 153 148 149 154 160 167 181 196 214 231
233 242 248 251 255 261 264 258 251 241 248 257 261 110 123 138 149 149 152 154 147 145 146 154 154 159 163 161 154 151 149 147 148 152 156 161 176 175 175 173 156 163 169 176 188 202 214 222 230
226 235 243 252 263 271 275 261 249 240 229 222 205 129 133 151 159 161 160 161 154 153 155 156 155 162 169 163 151 165 169 163 179 171 170 192 204 189 175 157 164 172 180 192 206 216 223 229 229
227 237 253 258 263 277 289 283 258 253 238 231 202 158 154 159 167 170 167 166 160 161 164 157 157 165 167 154 158 172 175 163 193 178 175 197 204 175 151 157 164 179 190 203 208 219 231 227 226
235 243 251 264 275 276 273 277 266 255 251 253 232 157 154 167 174 178 171 168 162 165 171 161 155 165 167 159 162 168 169 164 181 170 177 186 196 187 164 170 171 183 198 203 196 217 221 237 261
233 244 257 261 267 271 265 261 264 264 257 260 234 181 169 180 188 187 173 168 165 167 173 166 156 157 156 145 158 167 164 165 168 162 178 171 176 185 164 159 157 186 181 177 204 235 203 81 316
246 242 245 253 252 249 252 256 254 254 255 251 230 216 188 185 196 187 176 171 168 167 171 164 155 151 150 146 156 150 155 148 157 158 166 168 165 156 142 136 125 91 73 91 145 300 60 42 323
256 263 255 244 243 239 240 245 244 244 241 234 218 211 204 191 197 189 181 173 167 163 164 158 156 154 159 161 171 161 161 153 155 148 151 156 160 146 144 140 139 156 92 73 54 15 33 7 334
239 247 251 243 229 228 230 243 238 225 232 230 221 211 197 188 187 191 183 169 163 164 161 162 167 159 163 164 173 162 162 149 142 138 146 151 152 150 144 146 146 135 116 85 88 31 359 347 357
236 237 243 243 217 210 217 240 249 217 212 222 224 217 194 182 183 176 182 172 162 158 157 163 164 159 165 164 159 158 149 141 139 141 138 147 154 154 150 149 137 134 124 123 170 113 11 10 11
232 228 237 242 206 200 213 231 248 232 206 206 217 220 201 191 188 176 167 157 149 151 154 161 158 154 158 160 156 162 150 139 136 133 142 147 142 141 141 133 118 123 126 132 113 102 76 44 12
266 274 257 242 213 194 217 230 241 235 207 209 216 220 203 192 170 134 131 134 146 155 158 161 163 155 156 162 167 169 160 144 129 114 109 103 107 111 107 107 109 117 128 118 114 120 119 79 43
258 271 273 262 206 190 227 243 247 248 224 208 218 193 97 65 48 77 102 128 145 157 158 157 162 159 163 161 157 151 138 126 109 90 80 80 85 86 100 99 105 98 95 91 79 58 78 66 62
248 258 267 268 237 206 234 247 248 246 238 210 193 143 86 79 65 60 68 89 132 143 157 166 163 159 161 147 138 130 117 112 105 103 87 75 81 79 78 87 89 90 93 91 83 78 105 117 69
248 250 262 272 267 246 224 241 231 226 222 206 171 117 78 60 60 59 55 46 70 116 141 139 142 144 146 143 149 150 146 135 121 109 99 84 74 76 77 79 80 80 78 73 66 59 58 82 88
250 256 256 258 263 266 255 251 247 218 199 186 144 100 76 59 54 52 49 48 49 58 86 91 102 107 112 118 131 132 125 115 109 106 101 90 81 80 84 84 84 82 80 79 72 65 57 55 60
245 250 256 252 250 247 247 255 253 243 185 148 113 90 77 68 59 54 49 48 51 55 64 72 80 80 87 92 101 108 113 112 114 111 106 97 90 83 81 82 81 82 82 78 74 69 66 63 63
231 232 235 230 230 241 234 238 236 80 95 106 100 88 79 73 66 58 52 50 52 56 63 70 75 73 74 79 80 88 98 103 105 105 102 100 94 86 80 81 79 79 79 79 78 76 70 60 49
219 228 236 240 238 245 233 225 148 104 99 99 97 92 82 74 68 63 58 57 59 61 65 71 75 75 74 76 77 78 83 85 87 89 95 94 93 92 90 85 83 80 78 75 67 71 64 55 27
228 223 242 263 277 280 261 145 114 114 110 107 102 94 86 79 73 68 63 61 62 64 66 73 78 78 76 78 78 78 81 86 91 92 93 94 96 99 92 88 82 74 66 60 54 58 46 35 9
247 237 234 247 262 272 269 183 165 147 131 119 110 101 94 88 82 76 72 71 70 71 71 72 75 78 77 78 80 85 83 84 86 86 84 85 86 86 86 81 77 73 68 54 34 25 44 11 358
224 241 242 248 253 261 265 346 95 146 135 126 115 108 103 97 90 85 81 79 79 78 76 76 77 78 78 79 80 82 83 84 85 84 83 84 86 87 87 86 82 78 68 51 27 2 9 10 2
244 235 238 247 255 266 274 85 85 111 118 116 112 109 104 100 95 90 87 83 81 80 80 81 82 83 84 84 84 83 85 85 86 88 89 88 85 83 82 79 71 60 56 41 24 8 10 1 354